Tracking 28790 objects as of 19-Apr-2024
HD Live streaming from Space Station
objects crossing your sky now

EDUSAT

Track EDUSAT now!
10-day predictions
EDUSAT is classified as:


NORAD ID: 37788
Int'l Code: 2011-044A
Perigee: 631.2 km
Apogee: 684.3 km
Inclination: 98.4 °
Period: 97.7 minutes
Semi major axis: 7028 km
RCS: 0.1421 m2 (medium)
Launch date: August 17, 2011
Source: Italy (IT)
Launch site: Orenburg, Russia (OREN)

EduSat is a microsatellite built by the University of Rome.
Your satellite tracking list
Your tracking list is empty




NASA's NSSDC Master Catalog

Two Line Element Set (TLE):
1 37788U 11044A   24109.57444074  .00002949  00000-0  45946-3 0  9999
2 37788  98.3725 334.4726 0037780 114.4507 304.1911 14.73277012680114
Source of the keplerian elements: AFSPC